Current Version              Previous Version:    01  02  03  04  05  06  07  08  09  10  11  12  13  14  15  16  17  18  19  20  21  22  23  24  25  26  27  28  29  30  
   31  32  33  34  35  36  37  38  39  40  41  42  43  44  45  46  47  48  49  50  51  52  53  54  55  56  57  58  59  60  

[Printable]
155
ASUS44 KFWD 021415
RWRTX
NORTH TEXAS HOURLY WEATHER ROUNDUP
NATIONAL WEATHER SERVICE FORT WORTH TX
900 AM CDT TUE SEP 02 2014

NOTE: "FAIR" INDICATES FEW OR NO CLOUDS BELOW 12,000 FEET WITH NO
SIGNIFICANT WEATHER AND/OR OBSTRUCTIONS TO VISIBILITY.

TXZ118-119-021500-
DALLAS/FORT WORTH METROPLEX

CITY           SKY/WX    TMP DP  RH WIND       PRES   REMARKS
DFW AIRPORT    MOSUNNY   83  73  72 S17       29.96R
DALLAS LOVE    PTSUNNY   81  73  76 S9        29.97R
FTW MEACHAM    MOSUNNY   82  72  71 S14       29.95R
DAL-EXECUTIVE  PTSUNNY   82  73  74 VRB6G18   29.96R
FTW-ALLIANCE   MOSUNNY   82  72  71 S10G18    29.95R
FTW-NAS-JRB    MOSUNNY   84  70  62 S16G23    29.99R
FTW-SPINKS     PTSUNNY   81  72  74 S10       29.97R
ARLINGTON      PTSUNNY   81  72  74 S7G18     29.96R
GRAND PRAIRIE  PTSUNNY   81  72  74 S8G18     29.98R
ADDISON        CLOUDY    81  72  74 S12       29.98R
MESQUITE         N/A     81  73  78 S9        29.97R
LANCASTER      PTSUNNY   80  72  76 S9        29.98R
$$

TXZ091>094-102>105-117-120-121-131>134-021500-
NORTH CENTRAL TEXAS

CITY           SKY/WX    TMP DP  RH WIND       PRES   REMARKS
SHRMAN/DENISON SUNNY     82  70  67 S17       29.97R
GAINESVILLE    SUNNY     80  70  73 S13       29.96S
BOWIE          SUNNY     80  70  73 S14G20    29.94S
BRIDGEPORT     SUNNY     81  68  64 S9        29.97R
DECATUR        SUNNY     79  69  72 S9        29.97R
DENTON         SUNNY     82  71  69 S10       29.95R
MCKINNEY       PTSUNNY   80  73  79 S14       29.96R
GREENVILLE     CLOUDY    81  72  74 S8        29.98R
ROCKWALL       CLOUDY    81  74  79 S10       29.96S
TERRELL        CLOUDY    82  76  81 S9        29.98R
WAXAHACHIE     CLOUDY    80  71  75 S12       29.99R
CLEBURNE       CLOUDY    79  75  89 S10       29.99R
GRANBURY       SUNNY     82  71  68 S14       29.97R
$$

TXZ083>090-098>101-113>116-127>130-139>142-154-155-021500-
WESTERN NORTH TEXAS

CITY           SKY/WX    TMP DP  RH WIND       PRES   REMARKS
WICHITA FALLS  MOSUNNY   82  70  66 S15       29.90R
WF-KICKAPOO    SUNNY     83  68  59 S8G17     29.92S
VERNON         SUNNY     83  66  56 S13       29.90R
ABILENE        SUNNY     80  69  69 S14G23    29.96R
ABILENE-DYESS  SUNNY     80  70  71 S21G29    29.94R
BRECKENRIDGE   SUNNY     82  68  61 SW16      29.94R HAZE
GRAHAM         SUNNY     82  69  64 S8        29.93R
MINERAL WELLS  SUNNY     80  70  71 S13       29.94R
STEPHENVILLE   SUNNY     78  70  76 S10       29.99R
COMANCHE         N/A     79  69  72 S17       29.96R
BROWNWOOD      MOSUNNY   79  70  73 S13G21    29.97R
COLEMAN        SUNNY     78  67  69 S13G21    29.97R
BRADY          MOSUNNY   77  70  78 S14       29.98R
$$

TXZ143>147-156>162-174-175-021500-
CENTRAL TEXAS

CITY           SKY/WX    TMP DP  RH WIND       PRES   REMARKS
WACO           PTSUNNY   81  74  79 S14       29.96R
WACO-TSTC      CLOUDY    81  73  78 S13       29.97R
WACO-MCGREGOR  CLOUDY    81  72  74 S18       29.97R
HILLSBORO      PTSUNNY   80  73  76 S14       29.97R
CORSICANA      CLOUDY    81  75  82 S9        29.99R
MEXIA          CLOUDY    80  75  87 S9        29.97R
HEARNE           N/A     79  76  92 S10       29.98R
CAMERON        PTSUNNY   82  76  83 S9        29.97R
TEMPLE         CLOUDY    79  72  78 S14       29.96R
KILLEEN        PTSUNNY   79  73  83 S16       29.96S
KILLEEN-SKYLRK PTSUNNY   81  70  69 S10       29.96R
FORT HOOD      CLOUDY    82  73  74 S12G23    29.97R
GATESVILLE     MOSUNNY   81  72  74 S12       29.98R
HAMILTON       SUNNY     80  70  73 S17G23    29.98R
LAMPASAS       PTSUNNY   79  74  84 S8        29.96S
$$

TXZ095>097-106>112-122>126-135>138-148>153-164>167-021500-
EAST TEXAS

CITY           SKY/WX    TMP DP  RH WIND       PRES   REMARKS
PARIS          CLOUDY    79  70  73 S8        30.00R
SULPHUR SPRNGS CLOUDY    81  73  78 S9        30.01R
MOUNT PLEASANT PTSUNNY   81  75  82 S8        30.01R
GILMER         PTSUNNY   81  75  83 S9        30.01R
MINEOLA        PTSUNNY   81  75  83 S7        30.00R
TYLER          CLOUDY    82  74  76 S10       29.99R
LONGVIEW       PTSUNNY   83  75  77 S14       29.99S HX  90
MARSHALL       CLOUDY    82  77  84 S5        30.02S HX  91
ATHENS         CLOUDY    79  73  83 S5        29.98R
PALESTINE      CLOUDY    80  76  88 S6        30.01R
JACKSONVILLE   CLOUDY    80  76  87 S5        30.03R
HENDERSON      CLOUDY    80  75  84 S6        30.02R
NACOGDOCHES    CLOUDY    81  75  83 S7        30.02R
LUFKIN         CLOUDY    82  76  81 SE10      30.01R
$$

SUPPLEMENTAL OBSERVATIONS (CENTRAL)

CITY           SKY/WX    TMP DP  RH WIND       PRES   REMARKS
LAKE TEXOMA      N/A     81  70  69 S6          N/A
CADDO GRASSLND   N/A     81  73  78 S14         N/A
PAT MAYSE LAKE   N/A     79  73  83 SE10        N/A
GREENVILLE       N/A     81  72  74 S10         N/A
CEDAR HILL       N/A     82  73  74 S9          N/A
PALESTINE        N/A     81  75  83 S7          N/A
MCGREGOR         N/A     81  73  78 S14         N/A
TEMPLE           N/A     81  75  83 S13         N/A
$$

SUPPLEMENTAL OBSERVATIONS (WEST)

CITY           SKY/WX    TMP DP  RH WIND       PRES   REMARKS
MILLERS CREEK    N/A     82  70  65 S16         N/A
POSSUM KINGDOM   N/A     82  68  61 S9          N/A
LBJ GRASSLAND    N/A     81  70  69 S9          N/A
GRANBURY         N/A     82  72  69 S14         N/A
HAMBY            N/A     81  68  65 S16         N/A
IVIE RESERVOIR   N/A     81  68  65 S17G23      N/A
COLORADO BEND    N/A     81  70  69 S12         N/A
$$

SUPPLEMENTAL OBSERVATIONS (EAST)

CITY           SKY/WX    TMP DP  RH WIND       PRES   REMARKS
CLARKSVILLE      N/A     81  73  78 S8          N/A
TEXARKANA        N/A     81  75  83 S2          N/A
LINDEN           N/A     82  75  78 SW5         N/A
GILMER           N/A     82  75  78 S6G16       N/A
HENDERSON        N/A     81  75  83 S8          N/A
LUFKIN           N/A     82  77  83 MISG        N/A  HX  91
N SABINE NF      N/A     81  77  89 MISG        N/A
S SABINE NF      N/A     82  77  83 S3          N/A  HX  91
$$

SUPPLEMENTAL OBSERVATIONS ARE A COLLECTION OF AUTOMATED INSTRUMENTS
THAT ARE MAINTAINED BY A VARIETY OF FEDERAL AND STATE AGENCIES.
CERTAIN ELEMENTS...SUCH AS HUMIDITY VALUES AND SUSTAINED WIND
SPEEDS...MAY BE APPROXIMATED.